Location: OLV Amersfoort
(52.1552°N, 5.3872°E)
Time: 18:34:53
(UTC+02:00)

ISS - Visible Passes

Search period start: 04 September 2015 00:00
Search period end: 14 September 2015 00:00
Orbit: 400 x 403 km, 51.6° (Epoch: 01 September)

Date Brightness Start Highest point End Pass type
(mag) Time Alt. Az. Time Alt. Az. Time Alt. Az.
11 Sep -1.3 06:28:23 10° SSW 06:30:58 22° SSE 06:33:36 10° E visible
12 Sep -0.8 05:36:02 10° S 05:37:54 15° SE 05:39:50 10° ESE visible
13 Sep -2.1 06:17:35 10° SW 06:20:37 35° SSE 06:23:39 10° E visible
